Time,TemperatureF,DewpointF,PressureIn,WindDirection,WindDirectionDegrees,WindSpeedMPH,WindSpeedGustMPH,Humidity,HourlyPrecipIn,Conditions,Clouds,dailyrainin,SoftwareType,DateUTC
2015-07-04 00:00:00,63.5,62.6,29.91,SSE,147,0.0,0.0,97,0.00,,,0.00,vanprod-2.5,2015-07-04 04:00:00,
2015-07-04 00:05:00,63.3,62.4,29.91,SSE,147,0.0,0.0,97,0.00,,,0.00,vanprod-2.5,2015-07-04 04:05:00,
2015-07-04 00:10:00,63.3,62.4,29.91,SSE,147,0.0,0.0,97,0.00,,,0.00,vanprod-2.5,2015-07-04 04:10:00,
2015-07-04 00:15:00,63.3,62.4,29.91,SE,146,0.0,0.0,97,0.00,,,0.00,vanprod-2.5,2015-07-04 04:15:00,
2015-07-04 00:20:00,63.3,62.4,29.91,SE,146,0.0,0.0,97,0.00,,,0.00,vanprod-2.5,2015-07-04 04:20:00,
2015-07-04 00:25:00,63.3,62.4,29.91,SSE,147,0.0,0.0,97,0.00,,,0.00,vanprod-2.5,2015-07-04 04:25:00,
2015-07-04 00:30:00,63.2,62.3,29.91,SE,146,0.0,0.0,97,0.00,,,0.00,vanprod-2.5,2015-07-04 04:30:00,
2015-07-04 00:35:00,63.2,62.3,29.91,SSE,147,0.0,0.0,97,0.00,,,0.00,vanprod-2.5,2015-07-04 04:35:00,
2015-07-04 00:40:00,63.2,62.3,29.91,SSE,147,0.0,0.0,97,0.00,,,0.00,vanprod-2.5,2015-07-04 04:40:00,
2015-07-04 00:45:00,63.2,62.3,29.91,SSE,147,0.0,0.0,97,0.00,,,0.00,vanprod-2.5,2015-07-04 04:45:00,
2015-07-04 00:50:00,63.4,62.8,29.91,SSE,147,0.0,0.0,98,0.00,,,0.00,vanprod-2.5,2015-07-04 04:50:00,
2015-07-04 00:55:00,63.3,62.4,29.91,SE,146,0.0,0.0,97,0.00,,,0.00,vanprod-2.5,2015-07-04 04:55:00,
2015-07-04 01:00:00,63.2,62.3,29.91,SSE,147,0.0,0.0,97,0.00,,,0.00,vanprod-2.5,2015-07-04 05:00:00,
2015-07-04 01:05:00,63.4,62.8,29.91,SSE,147,0.0,0.0,98,0.00,,,0.00,vanprod-2.5,2015-07-04 05:05:00,
2015-07-04 01:10:00,63.5,62.9,29.91,SSE,147,0.0,0.0,98,0.00,,,0.00,vanprod-2.5,2015-07-04 05:10:00,
2015-07-04 01:15:00,63.6,63.0,29.92,SE,146,0.0,0.0,98,0.00,,,0.00,vanprod-2.5,2015-07-04 05:15:00,
2015-07-04 01:20:00,63.6,63.0,29.92,SE,146,0.0,0.0,98,0.00,,,0.00,vanprod-2.5,2015-07-04 05:20:00,
2015-07-04 01:25:00,63.3,62.4,29.91,SSE,147,0.0,0.0,97,0.00,,,0.00,vanprod-2.5,2015-07-04 05:25:00,
2015-07-04 01:30:00,63.1,62.2,29.91,SSE,147,0.0,0.0,97,0.00,,,0.00,vanprod-2.5,2015-07-04 05:30:00,
2015-07-04 01:35:00,63.0,62.1,29.91,SSE,147,0.0,0.0,97,0.00,,,0.00,vanprod-2.5,2015-07-04 05:35:00,
2015-07-04 01:40:00,63.0,62.4,29.92,SSE,147,0.0,0.0,98,0.00,,,0.00,vanprod-2.5,2015-07-04 05:40:00,
2015-07-04 01:45:00,63.0,62.4,29.91,SSE,147,0.0,0.0,98,0.00,,,0.00,vanprod-2.5,2015-07-04 05:45:00,
2015-07-04 01:50:00,62.8,62.2,29.92,SE,146,0.0,0.0,98,0.00,,,0.00,vanprod-2.5,2015-07-04 05:50:00,
2015-07-04 01:55:00,62.9,62.3,29.92,SSE,147,0.0,0.0,98,0.00,,,0.00,vanprod-2.5,2015-07-04 05:55:00,
2015-07-04 02:00:00,62.9,62.3,29.91,SSE,147,0.0,0.0,98,0.00,,,0.00,vanprod-2.5,2015-07-04 06:00:00,
2015-07-04 02:05:00,63.1,62.5,29.91,SE,146,0.0,0.0,98,0.00,,,0.00,vanprod-2.5,2015-07-04 06:05:00,
2015-07-04 02:10:00,63.2,62.6,29.91,SSE,147,0.0,0.0,98,0.00,,,0.00,vanprod-2.5,2015-07-04 06:10:00,
2015-07-04 02:15:00,63.2,62.6,29.91,SSE,147,0.0,0.0,98,0.00,,,0.00,vanprod-2.5,2015-07-04 06:15:00,
2015-07-04 02:20:00,63.2,62.6,29.91,SSE,147,0.0,0.0,98,0.00,,,0.00,vanprod-2.5,2015-07-04 06:20:00,
2015-07-04 02:25:00,63.2,62.6,29.92,SSE,147,0.0,0.0,98,0.00,,,0.00,vanprod-2.5,2015-07-04 06:25:00,
2015-07-04 02:30:00,63.1,62.5,29.92,SE,146,0.0,0.0,98,0.00,,,0.00,vanprod-2.5,2015-07-04 06:30:00,
2015-07-04 02:35:00,63.1,62.5,29.92,SSE,147,0.0,0.0,98,0.00,,,0.00,vanprod-2.5,2015-07-04 06:35:00,
2015-07-04 02:40:00,63.0,62.4,29.92,SSE,147,0.0,0.0,98,0.00,,,0.00,vanprod-2.5,2015-07-04 06:40:00,
2015-07-04 02:45:00,63.0,62.4,29.92,SE,146,0.0,0.0,98,0.00,,,0.00,vanprod-2.5,2015-07-04 06:45:00,
2015-07-04 02:50:00,63.0,62.4,29.92,SSE,147,0.0,0.0,98,0.00,,,0.00,vanprod-2.5,2015-07-04 06:50:00,
2015-07-04 02:55:00,63.0,62.4,29.92,SSE,147,0.0,0.0,98,0.00,,,0.00,vanprod-2.5,2015-07-04 06:55:00,
2015-07-04 03:00:00,62.9,62.3,29.92,SSE,147,0.0,0.0,98,0.00,,,0.00,vanprod-2.5,2015-07-04 07:00:00,
2015-07-04 03:05:00,62.9,62.3,29.92,SSE,147,0.0,0.0,98,0.00,,,0.00,vanprod-2.5,2015-07-04 07:05:00,
2015-07-04 03:10:00,62.9,62.3,29.92,SE,146,0.0,0.0,98,0.00,,,0.00,vanprod-2.5,2015-07-04 07:10:00,
2015-07-04 03:15:00,63.4,62.8,29.92,NE,51,0.0,0.0,98,0.00,,,0.00,vanprod-2.5,2015-07-04 07:15:00,
2015-07-04 03:20:00,63.5,62.9,29.92,NNE,17,0.0,0.0,98,0.00,,,0.00,vanprod-2.5,2015-07-04 07:20:00,
2015-07-04 03:25:00,63.6,63.0,29.92,North,359,0.0,1.0,98,0.00,,,0.00,vanprod-2.5,2015-07-04 07:25:00,
2015-07-04 03:30:00,63.6,63.0,29.92,NNE,13,0.0,1.0,98,0.00,,,0.00,vanprod-2.5,2015-07-04 07:30:00,
2015-07-04 03:40:00,63.7,63.1,29.92,North,352,0.0,0.0,98,0.00,,,0.00,vanprod-2.5,2015-07-04 07:40:00,
2015-07-04 03:45:00,63.7,63.1,29.92,North,352,0.0,1.0,98,0.00,,,0.00,vanprod-2.5,2015-07-04 07:45:00,
2015-07-04 03:50:00,63.6,63.0,29.92,NNE,17,0.0,0.0,98,0.00,,,0.00,vanprod-2.5,2015-07-04 07:50:00,
2015-07-04 03:55:00,63.5,62.9,29.93,NNW,340,0.0,1.0,98,0.00,,,0.00,vanprod-2.5,2015-07-04 07:55:00,
2015-07-04 04:00:00,63.5,62.9,29.92,North,5,0.0,1.0,98,0.00,,,0.00,vanprod-2.5,2015-07-04 08:00:00,
2015-07-04 04:05:00,63.4,62.8,29.92,North,0,0.0,0.0,98,0.00,,,0.00,vanprod-2.5,2015-07-04 08:05:00,
2015-07-04 04:10:00,63.3,62.7,29.92,NNW,335,0.0,1.0,98,0.00,,,0.00,vanprod-2.5,2015-07-04 08:10:00,
2015-07-04 04:15:00,63.3,62.7,29.92,North,9,0.0,1.0,98,0.00,,,0.00,vanprod-2.5,2015-07-04 08:15:00,
2015-07-04 04:20:00,63.2,62.6,29.93,North,351,0.0,1.0,98,0.00,,,0.00,vanprod-2.5,2015-07-04 08:20:00,
2015-07-04 04:25:00,63.2,62.6,29.92,NNW,337,0.0,1.0,98,0.00,,,0.00,vanprod-2.5,2015-07-04 08:25:00,
2015-07-04 04:30:00,63.1,62.5,29.92,North,358,0.0,1.0,98,0.00,,,0.00,vanprod-2.5,2015-07-04 08:30:00,
2015-07-04 04:35:00,63.0,62.4,29.93,NNW,332,0.0,1.0,98,0.00,,,0.00,vanprod-2.5,2015-07-04 08:35:00,
2015-07-04 04:40:00,63.0,62.4,29.92,North,350,0.0,1.0,98,0.00,,,0.00,vanprod-2.5,2015-07-04 08:40:00,
2015-07-04 04:45:00,62.9,62.3,29.92,NNW,342,0.0,1.0,98,0.00,,,0.00,vanprod-2.5,2015-07-04 08:45:00,
2015-07-04 04:50:00,62.8,62.2,29.92,North,354,0.0,1.0,98,0.00,,,0.00,vanprod-2.5,2015-07-04 08:50:00,
2015-07-04 04:55:00,62.7,62.1,29.93,North,353,0.0,2.0,98,0.00,,,0.00,vanprod-2.5,2015-07-04 08:55:00,
2015-07-04 05:00:00,62.6,62.0,29.92,NNE,27,0.0,0.0,98,0.00,,,0.00,vanprod-2.5,2015-07-04 09:00:00,
2015-07-04 05:05:00,62.5,61.9,29.93,North,7,0.0,1.0,98,0.00,,,0.00,vanprod-2.5,2015-07-04 09:05:00,
2015-07-04 05:10:00,62.4,61.8,29.92,North,6,0.0,0.0,98,0.00,,,0.00,vanprod-2.5,2015-07-04 09:10:00,
2015-07-04 05:15:00,62.3,61.7,29.93,North,8,0.0,0.0,98,0.00,,,0.00,vanprod-2.5,2015-07-04 09:15:00,
2015-07-04 05:20:00,62.2,61.6,29.93,North,10,0.0,0.0,98,0.00,,,0.00,vanprod-2.5,2015-07-04 09:20:00,
2015-07-04 05:25:00,62.2,61.6,29.93,NNE,26,0.0,1.0,98,0.00,,,0.00,vanprod-2.5,2015-07-04 09:25:00,
2015-07-04 05:30:00,62.1,61.5,29.93,North,9,0.0,1.0,98,0.00,,,0.00,vanprod-2.5,2015-07-04 09:30:00,
2015-07-04 05:35:00,62.1,61.5,29.93,NNE,15,0.0,0.0,98,0.00,,,0.00,vanprod-2.5,2015-07-04 09:35:00,
2015-07-04 05:40:00,62.0,61.4,29.93,North,357,0.0,2.0,98,0.00,,,0.00,vanprod-2.5,2015-07-04 09:40:00,
2015-07-04 05:45:00,62.0,61.4,29.93,North,1,0.0,0.0,98,0.00,,,0.00,vanprod-2.5,2015-07-04 09:45:00,
2015-07-04 05:50:00,62.0,61.4,29.93,North,358,1.0,2.0,98,0.00,,,0.00,vanprod-2.5,2015-07-04 09:50:00,
2015-07-04 05:55:00,61.9,61.3,29.94,North,3,0.0,1.0,98,0.00,,,0.00,vanprod-2.5,2015-07-04 09:55:00,
2015-07-04 06:00:00,61.8,60.9,29.94,NNW,342,0.0,0.0,97,0.00,,,0.00,vanprod-2.5,2015-07-04 10:00:00,
2015-07-04 06:05:00,61.8,60.9,29.94,North,356,0.0,0.0,97,0.00,,,0.00,vanprod-2.5,2015-07-04 10:05:00,
2015-07-04 06:10:00,61.7,60.8,29.94,North,3,0.0,0.0,97,0.00,,,0.00,vanprod-2.5,2015-07-04 10:10:00,
2015-07-04 06:15:00,61.6,60.7,29.94,North,4,0.0,1.0,97,0.00,,,0.00,vanprod-2.5,2015-07-04 10:15:00,
2015-07-04 06:20:00,61.5,60.4,29.95,North,4,0.0,0.0,96,0.00,,,0.00,vanprod-2.5,2015-07-04 10:20:00,
2015-07-04 06:25:00,61.5,60.4,29.95,North,4,0.0,0.0,96,0.00,,,0.00,vanprod-2.5,2015-07-04 10:25:00,
2015-07-04 06:30:00,61.4,60.3,29.95,North,6,0.0,0.0,96,0.00,,,0.00,vanprod-2.5,2015-07-04 10:30:00,
2015-07-04 06:35:00,61.4,60.0,29.95,North,360,0.0,0.0,95,0.00,,,0.00,vanprod-2.5,2015-07-04 10:35:00,
2015-07-04 06:40:00,61.4,60.0,29.95,North,359,0.0,1.0,95,0.00,,,0.00,vanprod-2.5,2015-07-04 10:40:00,
2015-07-04 06:45:00,61.5,60.1,29.95,North,3,0.0,1.0,95,0.00,,,0.00,vanprod-2.5,2015-07-04 10:45:00,
2015-07-04 06:50:00,61.5,60.1,29.95,North,3,0.0,1.0,95,0.00,,,0.00,vanprod-2.5,2015-07-04 10:50:00,
2015-07-04 06:55:00,61.6,59.9,29.96,North,355,0.0,1.0,94,0.00,,,0.00,vanprod-2.5,2015-07-04 10:55:00,
2015-07-04 07:00:00,61.6,59.9,29.96,North,7,0.0,0.0,94,0.00,,,0.00,vanprod-2.5,2015-07-04 11:00:00,
2015-07-04 07:05:00,61.7,60.0,29.96,NNW,343,0.0,1.0,94,0.00,,,0.00,vanprod-2.5,2015-07-04 11:05:00,
2015-07-04 07:10:00,61.9,59.9,29.96,North,358,0.0,1.0,93,0.00,,,0.00,vanprod-2.5,2015-07-04 11:10:00,
2015-07-04 07:15:00,62.1,60.1,29.97,North,356,0.0,0.0,93,0.00,,,0.00,vanprod-2.5,2015-07-04 11:15:00,
2015-07-04 07:20:00,62.2,59.9,29.97,North,353,0.0,1.0,92,0.00,,,0.00,vanprod-2.5,2015-07-04 11:20:00,
2015-07-04 07:25:00,62.4,60.0,29.97,North,353,0.0,0.0,92,0.00,,,0.00,vanprod-2.5,2015-07-04 11:25:00,
2015-07-04 07:30:00,62.5,59.8,29.97,NNE,18,0.0,2.0,91,0.00,,,0.00,vanprod-2.5,2015-07-04 11:30:00,
2015-07-04 07:35:00,62.7,60.0,29.97,North,1,0.0,0.0,91,0.00,,,0.00,vanprod-2.5,2015-07-04 11:35:00,
2015-07-04 07:40:00,62.9,59.9,29.97,North,355,0.0,1.0,90,0.00,,,0.00,vanprod-2.5,2015-07-04 11:40:00,
2015-07-04 07:45:00,63.0,59.7,29.98,North,11,0.0,0.0,89,0.00,,,0.00,vanprod-2.5,2015-07-04 11:45:00,
2015-07-04 07:50:00,63.3,60.0,29.98,North,3,0.0,0.0,89,0.00,,,0.00,vanprod-2.5,2015-07-04 11:50:00,
2015-07-04 07:55:00,63.5,59.9,29.98,NNE,13,0.0,1.0,88,0.00,,,0.00,vanprod-2.5,2015-07-04 11:55:00,
2015-07-04 08:00:00,63.8,60.2,29.98,NNW,328,0.0,0.0,88,0.00,,,0.00,vanprod-2.5,2015-07-04 12:00:00,
2015-07-04 08:05:00,64.2,60.6,29.98,NE,49,0.0,0.0,88,0.00,,,0.00,vanprod-2.5,2015-07-04 12:05:00,
2015-07-04 08:10:00,64.4,60.8,29.98,NW,325,0.0,0.0,88,0.00,,,0.00,vanprod-2.5,2015-07-04 12:10:00,
2015-07-04 08:15:00,64.5,59.9,29.98,North,6,1.0,4.0,85,0.00,,,0.00,vanprod-2.5,2015-07-04 12:15:00,
2015-07-04 08:20:00,64.6,59.7,29.98,NNE,19,1.0,2.0,84,0.00,,,0.00,vanprod-2.5,2015-07-04 12:20:00,
2015-07-04 08:25:00,64.7,59.8,29.98,North,11,1.0,2.0,84,0.00,,,0.00,vanprod-2.5,2015-07-04 12:25:00,
2015-07-04 08:30:00,64.9,59.6,29.98,North,349,0.0,2.0,83,0.00,,,0.00,vanprod-2.5,2015-07-04 12:30:00,
2015-07-04 08:35:00,65.0,59.7,29.99,NNW,347,1.0,2.0,83,0.00,,,0.00,vanprod-2.5,2015-07-04 12:35:00,
2015-07-04 08:40:00,65.3,60.0,29.99,NNW,341,1.0,2.0,83,0.00,,,0.00,vanprod-2.5,2015-07-04 12:40:00,
2015-07-04 08:45:00,65.5,59.5,29.99,North,3,1.0,1.0,81,0.00,,,0.00,vanprod-2.5,2015-07-04 12:45:00,
2015-07-04 08:50:00,65.6,59.6,29.99,NNW,334,0.0,1.0,81,0.00,,,0.00,vanprod-2.5,2015-07-04 12:50:00,
2015-07-04 08:55:00,65.9,59.6,29.99,North,356,0.0,1.0,80,0.00,,,0.00,vanprod-2.5,2015-07-04 12:55:00,
2015-07-04 09:00:00,66.2,60.2,30.00,ENE,72,0.0,0.0,81,0.00,,,0.00,vanprod-2.5,2015-07-04 13:00:00,
2015-07-04 09:05:00,66.5,59.4,30.00,ENE,59,1.0,5.0,78,0.00,,,0.00,vanprod-2.5,2015-07-04 13:05:00,
2015-07-04 09:10:00,66.8,59.4,30.00,East,84,0.0,0.0,77,0.00,,,0.00,vanprod-2.5,2015-07-04 13:10:00,
2015-07-04 09:15:00,67.0,58.8,30.00,North,8,0.0,1.0,75,0.00,,,0.00,vanprod-2.5,2015-07-04 13:15:00,
2015-07-04 09:20:00,67.2,57.5,30.00,North,9,2.0,2.0,71,0.00,,,0.00,vanprod-2.5,2015-07-04 13:20:00,
2015-07-04 09:25:00,67.4,58.8,30.00,North,9,0.0,1.0,74,0.00,,,0.00,vanprod-2.5,2015-07-04 13:25:00,
2015-07-04 09:30:00,67.8,59.2,30.00,NNW,334,0.0,2.0,74,0.00,,,0.00,vanprod-2.5,2015-07-04 13:30:00,
2015-07-04 09:35:00,68.0,59.0,30.00,ENE,76,0.0,0.0,73,0.00,,,0.00,vanprod-2.5,2015-07-04 13:35:00,
2015-07-04 09:40:00,68.3,58.9,30.01,NE,39,0.0,2.0,72,0.00,,,0.00,vanprod-2.5,2015-07-04 13:40:00,
2015-07-04 09:45:00,68.5,59.5,30.01,NE,50,1.0,4.0,73,0.00,,,0.00,vanprod-2.5,2015-07-04 13:45:00,
2015-07-04 09:50:00,68.6,58.4,30.01,ENE,63,1.0,2.0,70,0.00,,,0.00,vanprod-2.5,2015-07-04 13:50:00,
2015-07-04 09:55:00,68.9,59.1,30.01,ENE,58,1.0,2.0,71,0.00,,,0.00,vanprod-2.5,2015-07-04 13:55:00,
2015-07-04 10:00:00,69.0,58.4,30.01,NE,49,2.0,5.0,69,0.00,,,0.00,vanprod-2.5,2015-07-04 14:00:00,
2015-07-04 10:05:00,69.2,60.2,30.01,ENE,63,1.0,2.0,73,0.00,,,0.00,vanprod-2.5,2015-07-04 14:05:00,
2015-07-04 10:10:00,69.4,59.6,30.02,East,93,0.0,1.0,71,0.00,,,0.00,vanprod-2.5,2015-07-04 14:10:00,
2015-07-04 10:15:00,69.6,59.8,30.01,North,349,1.0,4.0,71,0.00,,,0.00,vanprod-2.5,2015-07-04 14:15:00,
2015-07-04 10:20:00,69.9,60.1,30.01,NE,46,1.0,3.0,71,0.00,,,0.00,vanprod-2.5,2015-07-04 14:20:00,
2015-07-04 10:25:00,70.1,59.9,30.02,North,3,1.0,2.0,70,0.00,,,0.00,vanprod-2.5,2015-07-04 14:25:00,
2015-07-04 10:30:00,70.3,59.7,30.01,NW,325,1.0,2.0,69,0.00,,,0.00,vanprod-2.5,2015-07-04 14:30:00,
2015-07-04 10:35:00,70.6,59.9,30.02,NNW,331,1.0,2.0,69,0.00,,,0.00,vanprod-2.5,2015-07-04 14:35:00,
2015-07-04 10:40:00,70.8,60.1,30.02,NE,47,0.0,1.0,69,0.00,,,0.00,vanprod-2.5,2015-07-04 14:40:00,
2015-07-04 10:45:00,70.8,60.1,30.02,NE,36,1.0,2.0,69,0.00,,,0.00,vanprod-2.5,2015-07-04 14:45:00,
2015-07-04 10:50:00,71.0,59.5,30.02,East,79,1.0,1.0,67,0.00,,,0.00,vanprod-2.5,2015-07-04 14:50:00,
2015-07-04 10:55:00,70.8,60.1,30.01,ENE,69,2.0,3.0,69,0.00,,,0.00,vanprod-2.5,2015-07-04 14:55:00,
2015-07-04 11:00:00,70.7,59.6,30.01,East,90,0.0,1.0,68,0.00,,,0.00,vanprod-2.5,2015-07-04 15:00:00,
2015-07-04 11:05:00,71.1,60.0,30.02,ENE,72,1.0,1.0,68,0.00,,,0.00,vanprod-2.5,2015-07-04 15:05:00,
2015-07-04 11:10:00,71.6,61.7,30.01,ENE,78,1.0,3.0,71,0.00,,,0.00,vanprod-2.5,2015-07-04 15:10:00,
2015-07-04 11:15:00,71.6,60.1,30.01,NE,47,1.0,3.0,67,0.00,,,0.00,vanprod-2.5,2015-07-04 15:15:00,
2015-07-04 11:20:00,72.0,60.9,30.01,NE,40,1.0,3.0,68,0.00,,,0.00,vanprod-2.5,2015-07-04 15:20:00,
2015-07-04 11:25:00,72.5,61.3,30.01,North,8,1.0,1.0,68,0.00,,,0.00,vanprod-2.5,2015-07-04 15:25:00,
2015-07-04 11:30:00,72.4,61.3,30.02,ENE,69,3.0,4.0,68,0.00,,,0.00,vanprod-2.5,2015-07-04 15:30:00,
2015-07-04 11:35:00,72.9,60.5,30.02,NNW,332,2.0,3.0,65,0.00,,,0.00,vanprod-2.5,2015-07-04 15:35:00,
2015-07-04 11:40:00,73.4,59.6,30.02,NNE,29,0.0,1.0,62,0.00,,,0.00,vanprod-2.5,2015-07-04 15:40:00,
2015-07-04 11:45:00,73.8,61.3,30.02,North,355,2.0,2.0,65,0.00,,,0.00,vanprod-2.5,2015-07-04 15:45:00,
2015-07-04 11:50:00,73.9,58.2,30.02,NNW,334,2.0,4.0,58,0.00,,,0.00,vanprod-2.5,2015-07-04 15:50:00,
2015-07-04 11:55:00,73.9,59.6,30.02,ENE,72,2.0,3.0,61,0.00,,,0.00,vanprod-2.5,2015-07-04 15:55:00,
2015-07-04 12:00:00,73.8,60.0,30.02,SSE,148,0.0,0.0,62,0.00,,,0.00,vanprod-2.5,2015-07-04 16:00:00,
2015-07-04 12:05:00,74.1,59.8,30.02,WNW,299,1.0,2.0,61,0.00,,,0.00,vanprod-2.5,2015-07-04 16:05:00,
2015-07-04 12:10:00,74.6,59.3,30.02,NNE,18,0.0,1.0,59,0.00,,,0.00,vanprod-2.5,2015-07-04 16:10:00,
2015-07-04 12:15:00,74.6,59.8,30.03,NNE,25,0.0,2.0,60,0.00,,,0.00,vanprod-2.5,2015-07-04 16:15:00,
2015-07-04 12:20:00,75.1,60.7,30.02,NE,43,1.0,3.0,61,0.00,,,0.00,vanprod-2.5,2015-07-04 16:20:00,
2015-07-04 12:25:00,75.6,60.3,30.02,ENE,75,0.0,0.0,59,0.00,,,0.00,vanprod-2.5,2015-07-04 16:25:00,
2015-07-04 12:30:00,75.4,60.1,30.02,NE,39,1.0,3.0,59,0.00,,,0.00,vanprod-2.5,2015-07-04 16:30:00,
2015-07-04 12:35:00,75.6,61.2,30.02,WNW,284,0.0,0.0,61,0.00,,,0.00,vanprod-2.5,2015-07-04 16:35:00,
2015-07-04 12:40:00,76.4,61.0,30.02,West,277,0.0,0.0,59,0.00,,,0.00,vanprod-2.5,2015-07-04 16:40:00,
2015-07-04 12:45:00,76.2,60.4,30.02,North,352,1.0,3.0,58,0.00,,,0.00,vanprod-2.5,2015-07-04 16:45:00,
2015-07-04 12:50:00,76.1,60.7,30.02,North,11,0.0,1.0,59,0.00,,,0.00,vanprod-2.5,2015-07-04 16:50:00,
2015-07-04 12:55:00,76.6,60.2,30.02,NW,318,1.0,0.0,57,0.00,,,0.00,vanprod-2.5,2015-07-04 16:55:00,
2015-07-04 13:00:00,77.1,61.2,30.03,East,98,1.0,4.0,58,0.00,,,0.00,vanprod-2.5,2015-07-04 17:00:00,
2015-07-04 13:05:00,76.5,60.2,30.03,ENE,65,0.0,1.0,57,0.00,,,0.00,vanprod-2.5,2015-07-04 17:05:00,
2015-07-04 13:10:00,76.4,60.1,30.03,ENE,68,1.0,3.0,57,0.00,,,0.00,vanprod-2.5,2015-07-04 17:10:00,
2015-07-04 13:15:00,76.4,61.0,30.02,East,96,0.0,1.0,59,0.00,,,0.00,vanprod-2.5,2015-07-04 17:15:00,